Other Public Products
Issued by NWS Grand Forks, ND

Home | Current Version | Previous Version | Graphics & Text | Print | Product List | Glossary On
Versions: 1 2 3 4 5 6 7 8 9 10 11 12 13 14 15 16 17 18 19 20 21 22 23 24 25 26 27 28 29 30 31 32 33 34 35 36 37 38 39 40 41 42 43 44 45 46 47 48 49 50
000
FPUS83 KFGF 050210
OPUFGF
PRAIRIE TO PINES WEATHER ROUNDUP
NATIONAL WEATHER SERVICE EASTERN NORTH DAKOTA/GRAND FORKS ND
900 PM CDT MON MAY 04 2015

 **SATELLITE DATA USED TO AUGMENT SKY COVER AT AUTOMATED STATIONS**
 *****  WEATHER ACROSS EASTERN NORTH DAKOTA  *****

CITY           SKY/WX    TMP DP  RH WIND       PRES   REMARKS
GRAND FORKS    CLEAR     59  28  30 CALM      30.15S
GRAND FORKS AF CLEAR     60  26  27 SE5       30.15S
GRAND CITY NWS   N/A     57 N/A N/A E2          N/A
BUXTON         NOT AVBL
DEVILS LAKE    CLEAR     57  37  47 SE8       30.13S
FARGO          CLEAR     63  25  23 S6        30.16S
WAHPETON ARPT  CLEAR     59  19  21 NE5       30.17S
$$

 *****  WEATHER ACROSS CENTRAL AND WESTERN NORTH DAKOTA  *****

CITY           SKY/WX    TMP DP  RH WIND       PRES   REMARKS
JAMESTOWN      CLEAR     59  24  26 SE5       30.14F
BISMARCK       PTCLDY    55  27  34 S3        30.12S
MINOT          CLEAR     63  27  25 S10       30.07R
MINOT AFB      CLEAR     63  29  27 S10       30.05S
GARRISON         N/A     56  30  37 S9        30.09R
WILLISTON      CLEAR     62  40  44 S13G23    30.02R
DICKINSON      CLEAR     51  33  50 S12       30.08R
HETTINGER      CLOUDY    50  35  56 SE12      30.11F
$$

 *****  OTHER OBSERVATIONS NORTHEAST NORTH DAKOTA  *****

CITY           SKY/WX    TMP DP  RH WIND       PRES   REMARKS
WALHALLA       FAIR      59  28  31 E3        30.14R
LANGDON        FAIR      55  25  30 S8        30.15R
CAVALIER       FAIR      59  28  31 S3        30.14R
GRAFTON        FAIR      59  28  31 S7        30.15S
CANDO          FAIR      55  23  28 SE8       30.13S
FORT TOTTEN      N/A     61  25  25 E7        29.95
ROLLA          NOT AVBL
RUGBY          NOT AVBL
 ***** THE ABOVE OBSERVATIONS ARE NON NWS ARE NOT QUALITY
        CONTROLLED AND MAY MIS-REPORT RAIN FOR SNOW...
$$

 *****  OTHER OBSERVATIONS SOUTHEAST NORTH DAKOTA *****

CITY           SKY/WX    TMP DP  RH WIND       PRES   REMARKS
COOPERSTOWN    NOT AVBL
VALLEY CITY    FAIR      57  27  30 S7        30.16S
OAKES            N/A     55  27  33 E9        30.15S
GWINNER        CLEAR     59  28  31 E9        30.17S
BUFFALO        NOT AVBL
WYNDMERE       NOT AVBL
 ***** THE ABOVE OBSERVATIONS ARE NON NWS ARE NOT QUALITY
       CONTROLLED AND MAY MIS-REPORT RAIN FOR SNOW...
$$

  *****  WEATHER ACROSS NORTHERN MINNESOTA  *****

CITY           SKY/WX    TMP DP  RH WIND       PRES   REMARKS
FLAG ISLAND    CLEAR     54  36  50 CALM      30.16S
WARROAD        CLEAR     54  34  47 CALM      30.17S
ROSEAU         CLEAR     59  30  33 CALM      30.17R
HALLOCK        CLEAR     61  18  18 CALM      30.14S
THF RVR FALLS  CLEAR     61  23  23 CALM      30.18S
HALSTAD        NOT AVBL
FOSSTON        CLEAR     55  21  26 CALM      30.19R
BAUDETTE       CLEAR     55  27  34 CALM      30.18R
WASKISH        CLEAR     52  36  54 CALM      30.20R
CROOKSTON      CLEAR     61  28  29 SE3       30.18R
$$
  *****  WEATHER ACROSS CENTRAL AND WEST MINNESOTA  *****

CITY           SKY/WX    TMP DP  RH WIND       PRES   REMARKS
BEMIDJI        CLEAR     55  26  32 SE5       30.19R
PARK RAPIDS    CLEAR     59  30  33 S5        30.18S
WADENA         CLEAR     52  30  43 CALM      30.20R
DETROIT LAKES  CLEAR     59  30  33 S3        30.20S
MOORHEAD       CLEAR     61  25  25 S5        30.18R
FERGUS FALLS   CLEAR     61  30  31 CALM      30.19S
ELBOW LAKE     FAIR      59  29  32 NE7       30.18S
MORRIS MN      MOCLDY    59  30  33 E7        30.16S
STAPLES        CLEAR     55  28  35 CALM      30.20R
WHEATON        MOCLDY    61  28  29 E9        30.18R
$$
  *****  WEATHER ELSEWHERE ACROSS MINNESOTA  *****

CITY           SKY/WX    TMP DP  RH WIND       PRES   REMARKS
DULUTH         CLEAR     57  18  21 W3        30.20R
INTRNTL FALLS  CLEAR     44  31  60 CALM      30.19R
ELY            CLEAR     48  28  46 CALM      30.22R
CLOQUET        CLEAR     52  19  28 CALM      30.21R
BRAINERD       PTCLDY    52  24  33 CALM      30.21R
HIBBING        CLEAR     44  27  51 CALM      30.20R
ALEXANDRIA     PTCLDY    56  32  40 NE6       30.20R
SAINT CLOUD    PTCLDY    59  26  28 NE5       30.19S
MINNEAPOLIS    MOCLDY    65  28  24 VRB6      30.17R
$$

  *****  WEATHER ACROSS SOUTH DAKOTA  *****

CITY           SKY/WX    TMP DP  RH WIND       PRES   REMARKS
SIOUX FALLS    CLOUDY    62  30  29 E8        30.12R
BROOKINGS      MOCLDY    64  27  24 E12       30.14R
WATERTOWN      MOCLDY    60  28  29 E8        30.14F
HURON          MOCLDY    60  28  29 E6        30.10S
SISSETON         N/A     61  25  25 NE5       30.15R
ABERDEEN       CLOUDY    62  28  27 E7        30.13F
MITCHELL       CLOUDY    63  30  28 SE7       30.10R
PIERRE         CLOUDY    59  23  25 NE10      30.08F
MOBRIDGE       CLOUDY    59  30  33 E3        30.10F
RAPID CITY     CLOUDY    53  38  56 S7        30.09F
$$

  *****  SOME WEATHER IN NEARBY STATES *****

CITY           SKY/WX    TMP DP  RH WIND       PRES   REMARKS
GLASGOW MT     CLEAR     66  40  38 SE18      29.87R
GREAT FALLS MT CLEAR     66  21  18 W7        29.77F
CHEYENNE WY    CLOUDY    51  43  74 SE10      30.09R
SCOTTSBLUFF NE PTCLDY    54  35  48 SE16      30.09R
OMAHA NE       CLOUDY    60  57  89 N5        30.06S
DES MOINES IA  LGT RAIN  64  60  87 NE13      30.08S
DAVENPORT IA   CLOUDY    67  60  78 E9        30.09R
CHICAGO IL     MOCLDY    55  39  54 NE8       30.18R
EAU CLAIRE WI  MOCLDY    57  34  41 CALM      30.16S
LA CROSSE WI   CLOUDY    63  40  42 N3        30.14R
$$

  *****  SOME NATIONAL WEATHER *****

CITY           SKY/WX    TMP DP  RH WIND       PRES   REMARKS
LA GUARDIA NY  PTCLDY    74  42  31 S12       30.15R
RALEIGH NC     PTCLDY    70  53  54 S9        30.29R
ATLANTA GA     PTCLDY    72  51  47 S5        30.28R
NEW ORLEANS LA MOCLDY    74  62  66 SE10      30.15R
OKLAHOMA CITY  MOCLDY    70  55  59 SE12      29.98S
ALBUQUERQUE NM RAIN      53  51  93 E14       29.95F
SALT LAKE CITY MOCLDY    68  43  40 NW6       29.84R
LOS ANGELES CA PTCLDY    59  52  77 W16       29.94R
BOISE ID       PTCLDY    80  34  19 NW8       29.71F
SEATTLE WA     MOSUNNY   57  45  64 SW12G20   29.97R
$$

*** WEATHER ACROSS MANITOBA...SASKATCHEWAN AND ONTARIO ***
                ***ONTARIO***

CITY           SKY/WX    TMP DP  RH WIND       PRES   REMARKS
GERALDTON      CLEAR     46  28  49 SW6       30.15R
THUNDER BAY    PTCLDY    48  28  46 W5        30.21R
SIOUX LOOKOUT  PTCLDY    46  34  61 VRB2      30.18R
TORONTO        MOCLDY    63  54  72 NW9       30.15R
BIG TROUT LK   PTCLDY    37  25  60 NW12G18   30.07R
PICKLE LAKE    PTCLDY    48  30  49 W10G18    30.10R
DRYDEN         CLEAR     52  34  50 W6        30.19R
KENORA         NOT AVBL
$$
                *** MANITOBA***

CITY           SKY/WX    TMP DP  RH WIND       PRES   REMARKS
BRANDON        PTCLDY    59  30  33 SE7       30.09F
DAUPHIN        CLEAR     55  30  38 SE9       30.08S
ISLAND LAKE    PTCLDY    41  23  48 NW5       30.10R
PILOT MOUND      N/A     59  25  27 E3          N/A
THE PAS        MOCLDY    46  25  42 NE5       30.11F
THOMPSON       PTCLDY    37  18  44 NW6       30.11R
WINNIPEG       CLEAR     55  28  35 E6        30.15R
LYNN LAKE      CLEAR     36  14  41 NW6       30.12S
CHURCHILL      MOCLDY    25  18  74 NW29G37   29.99R WCI   8
GILLAM         CLOUDY    34  23  64 W12       30.08R
$$
                ***SASKATCHEWAN***

CITY           SKY/WX    TMP DP  RH WIND       PRES   REMARKS
ESTEVAN        PTCLDY    63  34  34 S15       30.01R
KINDERSLEY     PTCLDY    66  36  32 SE10      29.77F
LLOYDMINSTER   MOCLDY    54  27  35 E24       29.90S
PRINCE ALBERT  MOCLDY    54  32  43 NE13      30.01F
REGINA         PTCLDY    63  34  34 SE14      29.92F
YORKTON        CLEAR     55  30  38 E7        30.03S



USA.gov is the U.S. government's official web portal to all federal, state and local government web resources and services.